Time,TemperatureF,DewpointF,PressureIn,WindDirection,WindDirectionDegrees,WindSpeedMPH,WindSpeedGustMPH,Humidity,HourlyPrecipIn,Conditions,Clouds,dailyrainin,SoftwareType,DateUTC
2013-08-23 00:04:00,65.7,34.0,24.05,SW,226,5.0,9.0,25,-99.99,,,-99.99,meteohub,2013-08-23 06:04:00,
2013-08-23 00:09:00,65.7,34.0,24.08,SW,233,0.0,9.0,25,-99.99,,,-99.99,meteohub,2013-08-23 06:09:00,
2013-08-23 00:14:00,65.5,34.0,24.08,South,177,3.0,6.0,25,-99.99,,,-99.99,meteohub,2013-08-23 06:14:00,
2013-08-23 00:19:00,65.5,34.0,24.08,SSE,164,0.0,6.0,25,-99.99,,,-99.99,meteohub,2013-08-23 06:19:00,
2013-08-23 00:24:00,65.8,34.0,24.08,SSE,164,0.0,6.0,25,-99.99,,,-99.99,meteohub,2013-08-23 06:24:00,
2013-08-23 00:30:00,65.7,34.0,24.08,WSW,238,0.0,5.0,25,-99.99,,,-99.99,meteohub,2013-08-23 06:30:00,
2013-08-23 00:35:00,65.7,34.0,24.08,South,189,0.0,5.0,25,-99.99,,,-99.99,meteohub,2013-08-23 06:35:00,
2013-08-23 00:40:00,65.7,34.0,24.05,South,189,0.0,0.0,25,-99.99,,,-99.99,meteohub,2013-08-23 06:40:00,
2013-08-23 00:45:00,65.5,34.0,24.05,South,188,0.0,0.0,25,-99.99,,,-99.99,meteohub,2013-08-23 06:45:00,
2013-08-23 00:51:00,65.1,34.0,24.05,East,79,0.0,0.0,25,-99.99,,,-99.99,meteohub,2013-08-23 06:51:00,
2013-08-23 00:56:00,64.9,32.9,24.05,ENE,74,0.0,0.0,24,-99.99,,,-99.99,meteohub,2013-08-23 06:56:00,
2013-08-23 01:01:00,64.6,32.9,24.05,ENE,65,4.0,0.0,24,-99.99,,,-99.99,meteohub,2013-08-23 07:01:00,
2013-08-23 01:06:00,64.2,32.9,24.05,NE,52,0.0,5.0,24,-99.99,,,-99.99,meteohub,2013-08-23 07:06:00,
2013-08-23 01:11:00,63.9,33.8,24.05,NNE,23,0.0,5.0,25,-99.99,,,-99.99,meteohub,2013-08-23 07:11:00,
2013-08-23 01:17:00,63.5,33.8,24.05,ENE,61,0.0,4.0,25,-99.99,,,-99.99,meteohub,2013-08-23 07:17:00,
2013-08-23 01:22:00,63.1,33.8,24.05,NE,40,0.0,4.0,25,-99.99,,,-99.99,meteohub,2013-08-23 07:22:00,
2013-08-23 01:27:00,62.4,33.8,24.05,NW,316,0.0,0.0,25,-99.99,,,-99.99,meteohub,2013-08-23 07:27:00,
2013-08-23 01:32:00,61.9,33.6,24.05,NW,316,0.0,0.0,25,-99.99,,,-99.99,meteohub,2013-08-23 07:32:00,
2013-08-23 01:37:00,61.3,33.6,24.05,East,82,0.0,5.0,25,-99.99,,,-99.99,meteohub,2013-08-23 07:37:00,
2013-08-23 01:42:00,61.0,33.6,24.05,NE,45,0.0,5.0,25,-99.99,,,-99.99,meteohub,2013-08-23 07:42:00,
2013-08-23 01:47:00,60.8,33.6,24.05,NE,45,0.0,3.0,25,-99.99,,,-99.99,meteohub,2013-08-23 07:47:00,
2013-08-23 01:52:00,60.8,33.6,24.05,NE,45,0.0,3.0,25,-99.99,,,-99.99,meteohub,2013-08-23 07:52:00,
2013-08-23 01:57:00,60.6,33.6,24.05,NE,45,0.0,3.0,25,-99.99,,,-99.99,meteohub,2013-08-23 07:57:00,
2013-08-23 02:03:00,60.4,33.6,24.05,NE,45,0.0,3.0,25,-99.99,,,-99.99,meteohub,2013-08-23 08:03:00,
2013-08-23 02:08:00,60.1,33.6,24.05,NE,45,0.0,0.0,25,-99.99,,,-99.99,meteohub,2013-08-23 08:08:00,
2013-08-23 02:13:00,59.9,33.4,24.05,NE,45,0.0,0.0,25,-99.99,,,-99.99,meteohub,2013-08-23 08:13:00,
2013-08-23 02:18:00,59.5,33.4,24.05,NE,45,0.0,0.0,25,-99.99,,,-99.99,meteohub,2013-08-23 08:18:00,
2013-08-23 02:23:00,59.2,33.4,24.05,NE,45,0.0,0.0,25,-99.99,,,-99.99,meteohub,2013-08-23 08:23:00,
2013-08-23 02:29:00,59.2,33.4,24.05,NE,45,0.0,0.0,25,-99.99,,,-99.99,meteohub,2013-08-23 08:29:00,
2013-08-23 02:34:00,58.6,33.3,24.05,NE,45,0.0,0.0,25,-99.99,,,-99.99,meteohub,2013-08-23 08:34:00,
2013-08-23 02:39:00,57.7,33.3,24.05,NE,45,0.0,0.0,25,-99.99,,,-99.99,meteohub,2013-08-23 08:39:00,
2013-08-23 02:44:00,57.7,33.3,24.05,NE,45,0.0,0.0,25,-99.99,,,-99.99,meteohub,2013-08-23 08:44:00,
2013-08-23 02:49:00,57.6,33.3,24.05,NE,45,0.0,0.0,25,-99.99,,,-99.99,meteohub,2013-08-23 08:49:00,
2013-08-23 02:54:00,57.0,33.3,24.05,NW,311,3.0,0.0,25,-99.99,,,-99.99,meteohub,2013-08-23 08:54:00,
2013-08-23 03:00:00,56.8,33.3,24.05,NW,312,2.0,0.0,25,-99.99,,,-99.99,meteohub,2013-08-23 09:00:00,
2013-08-23 03:05:00,56.7,33.3,24.05,NW,321,4.0,4.0,25,-99.99,,,-99.99,meteohub,2013-08-23 09:05:00,
2013-08-23 03:10:00,55.9,33.1,24.05,ENE,68,0.0,4.0,25,-99.99,,,-99.99,meteohub,2013-08-23 09:10:00,
2013-08-23 03:15:00,55.4,33.1,24.05,ENE,68,0.0,4.0,25,-99.99,,,-99.99,meteohub,2013-08-23 09:15:00,
2013-08-23 03:20:00,55.6,33.1,24.05,ENE,68,0.0,4.0,25,-99.99,,,-99.99,meteohub,2013-08-23 09:20:00,
2013-08-23 03:26:00,55.4,33.1,24.05,ENE,68,0.0,0.0,25,-99.99,,,-99.99,meteohub,2013-08-23 09:26:00,
2013-08-23 03:31:00,55.2,33.1,24.05,ENE,68,0.0,0.0,25,-99.99,,,-99.99,meteohub,2013-08-23 09:31:00,
2013-08-23 03:36:00,55.4,33.1,24.05,ENE,68,0.0,0.0,25,-99.99,,,-99.99,meteohub,2013-08-23 09:36:00,
2013-08-23 03:41:00,55.2,33.1,24.05,ENE,68,0.0,0.0,25,-99.99,,,-99.99,meteohub,2013-08-23 09:41:00,
2013-08-23 03:46:00,55.0,33.1,24.05,ENE,68,0.0,0.0,25,-99.99,,,-99.99,meteohub,2013-08-23 09:46:00,
2013-08-23 03:51:00,54.9,32.9,24.05,ENE,68,0.0,0.0,25,-99.99,,,-99.99,meteohub,2013-08-23 09:51:00,
2013-08-23 03:57:00,54.5,32.9,24.05,ENE,68,0.0,0.0,25,-99.99,,,-99.99,meteohub,2013-08-23 09:57:00,
2013-08-23 04:02:00,54.5,32.9,24.05,ENE,68,0.0,0.0,25,-99.99,,,-99.99,meteohub,2013-08-23 10:02:00,
2013-08-23 04:07:00,54.3,32.9,24.05,ENE,68,0.0,0.0,25,-99.99,,,-99.99,meteohub,2013-08-23 10:07:00,
2013-08-23 04:12:00,54.1,32.9,24.05,ENE,68,0.0,0.0,25,-99.99,,,-99.99,meteohub,2013-08-23 10:12:00,
2013-08-23 04:17:00,54.0,32.9,24.05,ENE,68,0.0,0.0,25,-99.99,,,-99.99,meteohub,2013-08-23 10:17:00,
2013-08-23 04:22:00,53.8,32.7,24.05,WNW,296,0.0,0.0,25,-99.99,,,-99.99,meteohub,2013-08-23 10:22:00,
2013-08-23 04:27:00,53.6,32.7,24.05,WNW,295,0.0,0.0,25,-99.99,,,-99.99,meteohub,2013-08-23 10:27:00,
2013-08-23 04:32:00,53.2,32.7,24.05,NW,318,4.0,0.0,25,-99.99,,,-99.99,meteohub,2013-08-23 10:32:00,
2013-08-23 04:37:00,53.2,32.7,24.05,NW,305,0.0,5.0,25,-99.99,,,-99.99,meteohub,2013-08-23 10:37:00,
2013-08-23 04:42:00,53.1,32.5,24.05,NW,326,4.0,5.0,25,-99.99,,,-99.99,meteohub,2013-08-23 10:42:00,
2013-08-23 04:47:00,53.1,32.5,24.05,NW,322,0.0,5.0,25,-99.99,,,-99.99,meteohub,2013-08-23 10:47:00,
2013-08-23 04:52:00,53.1,32.5,24.05,NW,322,0.0,5.0,25,-99.99,,,-99.99,meteohub,2013-08-23 10:52:00,
2013-08-23 04:57:00,53.1,32.5,24.05,NW,322,0.0,5.0,25,-99.99,,,-99.99,meteohub,2013-08-23 10:57:00,
2013-08-23 05:02:00,53.1,32.4,24.05,NW,322,0.0,5.0,25,-99.99,,,-99.99,meteohub,2013-08-23 11:02:00,
2013-08-23 05:07:00,52.9,32.4,24.05,NW,322,0.0,5.0,25,-99.99,,,-99.99,meteohub,2013-08-23 11:07:00,
2013-08-23 05:12:00,52.9,32.4,24.05,NW,322,0.0,0.0,25,-99.99,,,-99.99,meteohub,2013-08-23 11:12:00,
2013-08-23 05:17:00,52.7,32.4,24.05,NW,322,0.0,0.0,25,-99.99,,,-99.99,meteohub,2013-08-23 11:17:00,
2013-08-23 05:22:00,52.5,32.4,24.05,NW,322,0.0,0.0,25,-99.99,,,-99.99,meteohub,2013-08-23 11:22:00,
2013-08-23 05:27:00,52.0,32.2,24.05,NW,322,0.0,0.0,25,-99.99,,,-99.99,meteohub,2013-08-23 11:27:00,
2013-08-23 05:32:00,51.8,32.2,24.05,NW,322,0.0,0.0,25,-99.99,,,-99.99,meteohub,2013-08-23 11:32:00,
2013-08-23 05:37:00,51.6,32.2,24.05,NW,322,0.0,0.0,25,-99.99,,,-99.99,meteohub,2013-08-23 11:37:00,
2013-08-23 05:42:00,51.6,32.0,24.05,NW,322,0.0,0.0,25,-99.99,,,-99.99,meteohub,2013-08-23 11:42:00,
2013-08-23 05:47:00,51.4,32.0,24.05,NW,322,0.0,0.0,25,-99.99,,,-99.99,meteohub,2013-08-23 11:47:00,
2013-08-23 05:52:00,51.4,32.0,24.05,NW,322,0.0,0.0,25,-99.99,,,-99.99,meteohub,2013-08-23 11:52:00,
2013-08-23 05:57:00,50.9,32.0,24.05,NW,322,0.0,0.0,25,-99.99,,,-99.99,meteohub,2013-08-23 11:57:00,
2013-08-23 06:02:00,50.7,32.0,24.05,NW,322,0.0,0.0,25,-99.99,,,-99.99,meteohub,2013-08-23 12:02:00,
2013-08-23 06:07:00,50.4,32.0,24.05,NW,322,0.0,0.0,25,-99.99,,,-99.99,meteohub,2013-08-23 12:07:00,
2013-08-23 06:12:00,50.2,32.0,24.05,NW,322,0.0,0.0,25,-99.99,,,-99.99,meteohub,2013-08-23 12:12:00,
2013-08-23 06:17:00,50.2,32.0,24.05,NW,322,0.0,0.0,25,-99.99,,,-99.99,meteohub,2013-08-23 12:17:00,
2013-08-23 06:22:00,50.2,32.0,24.05,NW,322,0.0,0.0,25,-99.99,,,-99.99,meteohub,2013-08-23 12:22:00,
2013-08-23 06:27:00,50.0,32.0,24.05,NW,322,0.0,0.0,25,-99.99,,,-99.99,meteohub,2013-08-23 12:27:00,
2013-08-23 06:32:00,49.5,31.8,24.05,NW,322,0.0,0.0,25,-99.99,,,-99.99,meteohub,2013-08-23 12:32:00,
2013-08-23 06:37:00,49.3,31.8,24.05,NW,322,0.0,0.0,25,-99.99,,,-99.99,meteohub,2013-08-23 12:37:00,
2013-08-23 06:42:00,49.3,31.8,24.05,NW,322,0.0,0.0,25,-99.99,,,-99.99,meteohub,2013-08-23 12:42:00,
2013-08-23 06:48:00,49.3,31.6,24.05,NW,322,0.0,0.0,25,-99.99,,,-99.99,meteohub,2013-08-23 12:48:00,
2013-08-23 06:53:00,49.1,31.6,24.05,NW,322,0.0,0.0,25,-99.99,,,-99.99,meteohub,2013-08-23 12:53:00,
2013-08-23 06:58:00,49.1,31.6,24.05,NW,322,0.0,0.0,25,-99.99,,,-99.99,meteohub,2013-08-23 12:58:00,
2013-08-23 07:03:00,49.1,31.6,24.05,NW,322,0.0,0.0,25,-99.99,,,-99.99,meteohub,2013-08-23 13:03:00,
2013-08-23 07:09:00,49.1,31.6,24.05,NW,322,0.0,0.0,25,-99.99,,,-99.99,meteohub,2013-08-23 13:09:00,
2013-08-23 07:14:00,48.9,31.6,24.05,NW,322,0.0,0.0,25,-99.99,,,-99.99,meteohub,2013-08-23 13:14:00,
2013-08-23 07:19:00,49.5,31.6,24.05,NW,322,0.0,0.0,25,-99.99,,,-99.99,meteohub,2013-08-23 13:19:00,
2013-08-23 07:24:00,49.6,31.6,24.05,NW,322,0.0,0.0,25,-99.99,,,-99.99,meteohub,2013-08-23 13:24:00,
2013-08-23 07:29:00,50.0,31.5,24.05,NW,322,0.0,0.0,25,-99.99,,,-99.99,meteohub,2013-08-23 13:29:00,
2013-08-23 07:35:00,50.2,31.5,24.05,NW,322,0.0,0.0,25,-99.99,,,-99.99,meteohub,2013-08-23 13:35:00,
2013-08-23 07:40:00,50.5,31.5,24.05,NW,322,0.0,0.0,25,-99.99,,,-99.99,meteohub,2013-08-23 13:40:00,
2013-08-23 07:45:00,50.9,31.5,24.05,NW,322,0.0,0.0,25,-99.99,,,-99.99,meteohub,2013-08-23 13:45:00,
2013-08-23 07:50:00,51.4,32.5,24.05,NW,322,0.0,0.0,25,-99.99,,,-99.99,meteohub,2013-08-23 13:50:00,
2013-08-23 07:56:00,52.3,33.4,24.05,NW,322,0.0,0.0,24,-99.99,,,-99.99,meteohub,2013-08-23 13:56:00,
2013-08-23 08:01:00,53.2,33.4,24.05,NW,322,0.0,0.0,24,-99.99,,,-99.99,meteohub,2013-08-23 14:01:00,
2013-08-23 08:06:00,54.3,32.9,24.05,NW,322,0.0,0.0,24,-99.99,,,-99.99,meteohub,2013-08-23 14:06:00,
2013-08-23 08:11:00,55.0,32.4,24.05,NW,322,0.0,0.0,24,-99.99,,,-99.99,meteohub,2013-08-23 14:11:00,
2013-08-23 08:17:00,55.8,32.0,24.05,NW,322,0.0,0.0,24,-99.99,,,-99.99,meteohub,2013-08-23 14:17:00,
2013-08-23 08:22:00,55.9,31.6,24.05,NW,322,0.0,0.0,24,-99.99,,,-99.99,meteohub,2013-08-23 14:22:00,
2013-08-23 08:27:00,56.1,31.5,24.05,NW,322,0.0,0.0,24,-99.99,,,-99.99,meteohub,2013-08-23 14:27:00,
2013-08-23 08:32:00,56.8,31.5,24.05,NW,322,0.0,0.0,24,-99.99,,,-99.99,meteohub,2013-08-23 14:32:00,
2013-08-23 08:37:00,57.4,32.2,24.05,NW,322,0.0,0.0,25,-99.99,,,-99.99,meteohub,2013-08-23 14:37:00,
2013-08-23 08:42:00,57.6,32.0,24.05,NW,322,0.0,0.0,25,-99.99,,,-99.99,meteohub,2013-08-23 14:42:00,
2013-08-23 08:47:00,57.6,32.0,24.05,NW,322,0.0,0.0,25,-99.99,,,-99.99,meteohub,2013-08-23 14:47:00,
2013-08-23 08:52:00,57.9,32.0,24.05,NW,322,0.0,0.0,25,-99.99,,,-99.99,meteohub,2013-08-23 14:52:00,
2013-08-23 08:57:00,58.8,32.0,24.05,NW,322,0.0,0.0,25,-99.99,,,-99.99,meteohub,2013-08-23 14:57:00,
2013-08-23 09:03:00,59.9,32.0,24.05,ENE,64,0.0,0.0,25,-99.99,,,-99.99,meteohub,2013-08-23 15:03:00,
2013-08-23 09:08:00,60.4,32.0,24.05,ENE,64,0.0,0.0,25,-99.99,,,-99.99,meteohub,2013-08-23 15:08:00,
2013-08-23 09:13:00,60.4,32.0,24.05,NE,40,0.0,0.0,25,-99.99,,,-99.99,meteohub,2013-08-23 15:13:00,
2013-08-23 09:18:00,61.2,32.0,24.05,NE,40,0.0,0.0,25,-99.99,,,-99.99,meteohub,2013-08-23 15:18:00,
2013-08-23 09:24:00,62.8,32.0,24.05,NNE,19,0.0,0.0,25,-99.99,,,-99.99,meteohub,2013-08-23 15:24:00,
2013-08-23 09:29:00,64.4,31.8,24.05,ENE,64,0.0,0.0,25,-99.99,,,-99.99,meteohub,2013-08-23 15:29:00,
2013-08-23 09:34:00,65.7,31.8,24.05,ENE,68,0.0,0.0,25,-99.99,,,-99.99,meteohub,2013-08-23 15:34:00,
2013-08-23 09:39:00,66.0,31.8,24.02,ENE,62,0.0,0.0,25,-99.99,,,-99.99,meteohub,2013-08-23 15:39:00,
2013-08-23 09:44:00,66.2,31.8,24.02,ENE,62,0.0,0.0,25,-99.99,,,-99.99,meteohub,2013-08-23 15:44:00,
2013-08-23 09:50:00,66.6,31.8,24.02,ENE,62,0.0,0.0,25,-99.99,,,-99.99,meteohub,2013-08-23 15:50:00,
2013-08-23 09:55:00,66.6,31.8,24.02,ENE,68,0.0,0.0,25,-99.99,,,-99.99,meteohub,2013-08-23 15:55:00,
2013-08-23 10:00:00,66.9,31.8,24.02,ENE,61,0.0,0.0,25,-99.99,,,-99.99,meteohub,2013-08-23 16:00:00,
2013-08-23 10:05:00,67.1,31.8,24.02,ENE,61,0.0,4.0,25,-99.99,,,-99.99,meteohub,2013-08-23 16:05:00,
2013-08-23 10:10:00,67.5,31.8,24.02,ENE,61,0.0,4.0,25,-99.99,,,-99.99,meteohub,2013-08-23 16:10:00,
2013-08-23 10:16:00,67.6,31.8,24.02,ENE,61,0.0,0.0,25,-99.99,,,-99.99,meteohub,2013-08-23 16:16:00,
2013-08-23 10:21:00,67.8,31.8,24.02,ENE,61,0.0,0.0,25,-99.99,,,-99.99,meteohub,2013-08-23 16:21:00,
2013-08-23 10:26:00,68.0,31.8,24.02,ENE,61,0.0,0.0,25,-99.99,,,-99.99,meteohub,2013-08-23 16:26:00,
2013-08-23 10:31:00,67.8,31.8,24.02,ENE,61,0.0,0.0,25,-99.99,,,-99.99,meteohub,2013-08-23 16:31:00,
2013-08-23 10:36:00,68.9,31.8,24.02,ENE,61,0.0,0.0,25,-99.99,,,-99.99,meteohub,2013-08-23 16:36:00,
2013-08-23 10:42:00,70.5,31.8,24.02,ENE,65,3.0,0.0,25,-99.99,,,-99.99,meteohub,2013-08-23 16:42:00,
2013-08-23 10:47:00,72.5,31.8,24.02,NE,36,0.0,6.0,25,-99.99,,,-99.99,meteohub,2013-08-23 16:47:00,
2013-08-23 10:52:00,73.2,31.8,24.02,SSE,149,4.0,6.0,25,-99.99,,,-99.99,meteohub,2013-08-23 16:52:00,
2013-08-23 10:57:00,73.4,31.8,24.02,SE,145,0.0,6.0,25,-99.99,,,-99.99,meteohub,2013-08-23 16:57:00,
2013-08-23 11:02:00,73.6,31.8,24.02,SE,145,0.0,6.0,25,-99.99,,,-99.99,meteohub,2013-08-23 17:02:00,
2013-08-23 11:07:00,73.6,31.8,24.02,SSW,205,0.0,6.0,25,-99.99,,,-99.99,meteohub,2013-08-23 17:07:00,
2013-08-23 11:12:00,73.9,32.0,24.02,SW,217,3.0,6.0,25,-99.99,,,-99.99,meteohub,2013-08-23 17:12:00,
2013-08-23 11:17:00,74.5,32.0,24.02,SE,146,3.0,6.0,25,-99.99,,,-99.99,meteohub,2013-08-23 17:17:00,
2013-08-23 11:22:00,75.2,32.0,24.02,SSW,193,4.0,6.0,25,-99.99,,,-99.99,meteohub,2013-08-23 17:22:00,
2013-08-23 11:28:00,74.5,32.0,24.02,South,182,5.0,6.0,25,-99.99,,,-99.99,meteohub,2013-08-23 17:28:00,
2013-08-23 11:33:00,74.3,32.0,24.02,South,185,5.0,6.0,25,-99.99,,,-99.99,meteohub,2013-08-23 17:33:00,
2013-08-23 11:38:00,74.3,32.0,24.02,SSE,156,5.0,6.0,25,-99.99,,,-99.99,meteohub,2013-08-23 17:38:00,
2013-08-23 11:43:00,74.1,32.0,24.02,SSE,148,3.0,8.0,25,-99.99,,,-99.99,meteohub,2013-08-23 17:43:00,
2013-08-23 11:48:00,74.1,32.0,24.02,SSW,195,4.0,8.0,25,-99.99,,,-99.99,meteohub,2013-08-23 17:48:00,
2013-08-23 11:54:00,75.4,32.0,24.02,SSE,166,3.0,8.0,25,-99.99,,,-99.99,meteohub,2013-08-23 17:54:00,
2013-08-23 11:59:00,75.2,32.0,24.02,SSW,194,5.0,8.0,25,-99.99,,,-99.99,meteohub,2013-08-23 17:59:00,
2013-08-23 12:04:00,75.2,32.0,24.02,South,169,5.0,6.0,25,-99.99,,,-99.99,meteohub,2013-08-23 18:04:00,
2013-08-23 12:09:00,75.0,32.2,24.02,SSE,168,0.0,6.0,25,-99.99,,,-99.99,meteohub,2013-08-23 18:09:00,
2013-08-23 12:14:00,75.7,32.2,24.02,South,173,4.0,6.0,25,-99.99,,,-99.99,meteohub,2013-08-23 18:14:00,
2013-08-23 12:20:00,75.0,32.2,24.02,SW,217,4.0,6.0,25,-99.99,,,-99.99,meteohub,2013-08-23 18:20:00,
2013-08-23 12:25:00,75.0,32.2,24.02,SSE,159,3.0,6.0,25,-99.99,,,-99.99,meteohub,2013-08-23 18:25:00,
2013-08-23 12:30:00,75.0,32.2,24.02,WSW,237,4.0,8.0,25,-99.99,,,-99.99,meteohub,2013-08-23 18:30:00,
2013-08-23 12:35:00,75.0,32.2,24.02,SW,218,4.0,8.0,25,-99.99,,,-99.99,meteohub,2013-08-23 18:35:00,
2013-08-23 12:41:00,74.8,32.2,24.02,South,186,7.0,7.0,25,-99.99,,,-99.99,meteohub,2013-08-23 18:41:00,
2013-08-23 12:46:00,74.7,32.2,24.02,SSW,207,5.0,7.0,25,-99.99,,,-99.99,meteohub,2013-08-23 18:46:00,
2013-08-23 12:51:00,74.7,32.2,24.02,South,178,4.0,7.0,25,-99.99,,,-99.99,meteohub,2013-08-23 18:51:00,
2013-08-23 12:56:00,75.0,32.2,24.02,SSW,204,5.0,8.0,25,-99.99,,,-99.99,meteohub,2013-08-23 18:56:00,
2013-08-23 13:01:00,76.3,32.4,24.02,South,179,5.0,8.0,25,-99.99,,,-99.99,meteohub,2013-08-23 19:01:00,
2013-08-23 13:06:00,77.7,32.4,24.02,South,178,3.0,9.0,25,-99.99,,,-99.99,meteohub,2013-08-23 19:06:00,
2013-08-23 13:12:00,78.3,32.4,24.02,SSE,167,3.0,9.0,25,-99.99,,,-99.99,meteohub,2013-08-23 19:12:00,
2013-08-23 13:17:00,79.3,32.5,24.02,SSE,168,3.0,11.0,25,-99.99,,,-99.99,meteohub,2013-08-23 19:17:00,
2013-08-23 13:22:00,79.5,32.5,24.02,South,178,5.0,11.0,25,-99.99,,,-99.99,meteohub,2013-08-23 19:22:00,
2013-08-23 13:27:00,79.5,32.5,23.99,SW,218,4.0,11.0,25,-99.99,,,-99.99,meteohub,2013-08-23 19:27:00,
2013-08-23 13:32:00,78.6,32.5,23.99,SSW,207,8.0,11.0,25,-99.99,,,-99.99,meteohub,2013-08-23 19:32:00,
2013-08-23 13:37:00,80.2,32.5,23.99,WSW,237,6.0,11.0,25,-99.99,,,-99.99,meteohub,2013-08-23 19:37:00,
2013-08-23 13:42:00,80.2,32.5,23.99,SSW,199,4.0,11.0,25,-99.99,,,-99.99,meteohub,2013-08-23 19:42:00,
2013-08-23 13:47:00,79.9,32.5,23.99,SSW,192,5.0,9.0,25,-99.99,,,-99.99,meteohub,2013-08-23 19:47:00,
2013-08-23 13:52:00,79.2,32.5,23.99,SSE,166,5.0,9.0,25,-99.99,,,-99.99,meteohub,2013-08-23 19:52:00,
2013-08-23 13:57:00,80.2,32.7,23.99,SSE,164,3.0,10.0,25,-99.99,,,-99.99,meteohub,2013-08-23 19:57:00,
2013-08-23 14:02:00,78.8,32.7,23.99,South,173,7.0,10.0,25,-99.99,,,-99.99,meteohub,2013-08-23 20:02:00,
2013-08-23 14:07:00,79.3,32.7,23.99,SE,140,3.0,9.0,25,-99.99,,,-99.99,meteohub,2013-08-23 20:07:00,
2013-08-23 14:12:00,79.9,32.9,23.99,South,170,10.0,10.0,25,-99.99,,,-99.99,meteohub,2013-08-23 20:12:00,
2013-08-23 14:17:00,80.2,32.9,23.99,South,182,6.0,13.0,25,-99.99,,,-99.99,meteohub,2013-08-23 20:17:00,
2013-08-23 14:22:00,79.9,32.9,23.99,SW,219,11.0,13.0,25,-99.99,,,-99.99,meteohub,2013-08-23 20:22:00,
2013-08-23 14:27:00,80.8,32.9,23.99,SE,137,4.0,13.0,25,-99.99,,,-99.99,meteohub,2013-08-23 20:27:00,
2013-08-23 14:32:00,80.8,32.9,23.99,South,190,8.0,13.0,25,-99.99,,,-99.99,meteohub,2013-08-23 20:32:00,
2013-08-23 14:37:00,81.0,32.9,23.99,SSW,194,6.0,11.0,25,-99.99,,,-99.99,meteohub,2013-08-23 20:37:00,
2013-08-23 14:42:00,81.5,33.1,23.96,SSE,163,15.0,15.0,25,-99.99,,,-99.99,meteohub,2013-08-23 20:42:00,
2013-08-23 14:47:00,81.0,33.1,23.96,South,181,5.0,12.0,25,-99.99,,,-99.99,meteohub,2013-08-23 20:47:00,
2013-08-23 14:52:00,80.8,33.1,23.96,SSW,195,6.0,12.0,25,-99.99,,,-99.99,meteohub,2013-08-23 20:52:00,
2013-08-23 14:57:00,80.4,33.1,23.96,SW,215,10.0,15.0,25,-99.99,,,-99.99,meteohub,2013-08-23 20:57:00,
2013-08-23 15:02:00,80.1,33.1,23.96,South,170,10.0,15.0,25,-99.99,,,-99.99,meteohub,2013-08-23 21:02:00,
2013-08-23 15:07:00,79.5,33.1,23.96,SSE,156,8.0,13.0,25,-99.99,,,-99.99,meteohub,2013-08-23 21:07:00,
2013-08-23 15:12:00,79.5,33.1,23.96,South,180,8.0,13.0,25,-99.99,,,-99.99,meteohub,2013-08-23 21:12:00,
2013-08-23 15:17:00,78.6,33.3,23.96,SSE,149,8.0,13.0,25,-99.99,,,-99.99,meteohub,2013-08-23 21:17:00,
2013-08-23 15:22:00,78.8,33.3,23.96,South,191,11.0,13.0,25,-99.99,,,-99.99,meteohub,2013-08-23 21:22:00,
2013-08-23 15:27:00,78.6,33.3,23.96,SSE,166,5.0,13.0,25,-99.99,,,-99.99,meteohub,2013-08-23 21:27:00,
2013-08-23 15:32:00,79.0,33.3,23.96,South,175,5.0,13.0,25,-99.99,,,-99.99,meteohub,2013-08-23 21:32:00,
2013-08-23 15:37:00,78.3,33.3,23.96,SSW,212,8.0,13.0,25,-99.99,,,-99.99,meteohub,2013-08-23 21:37:00,
2013-08-23 15:42:00,78.1,33.4,23.96,SW,216,10.0,13.0,25,-99.99,,,-99.99,meteohub,2013-08-23 21:42:00,
2013-08-23 15:47:00,77.5,33.4,23.96,South,187,8.0,12.0,25,-99.99,,,-99.99,meteohub,2013-08-23 21:47:00,
2013-08-23 15:52:00,77.0,33.4,23.96,SSW,211,9.0,12.0,25,-99.99,,,-99.99,meteohub,2013-08-23 21:52:00,
2013-08-23 15:58:00,76.6,33.4,23.96,SSE,166,6.0,12.0,25,-99.99,,,-99.99,meteohub,2013-08-23 21:58:00,
2013-08-23 16:03:00,76.3,33.4,23.96,SSW,203,8.0,12.0,25,-99.99,,,-99.99,meteohub,2013-08-23 22:03:00,
2013-08-23 16:08:00,75.9,33.6,23.96,SW,214,8.0,15.0,25,-99.99,,,-99.99,meteohub,2013-08-23 22:08:00,
2013-08-23 16:13:00,75.9,33.6,23.96,South,184,9.0,14.0,25,-99.99,,,-99.99,meteohub,2013-08-23 22:13:00,
2013-08-23 16:18:00,75.7,33.6,23.96,SSE,159,9.0,14.0,25,-99.99,,,-99.99,meteohub,2013-08-23 22:18:00,
2013-08-23 16:24:00,75.6,33.6,23.96,SSW,203,11.0,14.0,25,-99.99,,,-99.99,meteohub,2013-08-23 22:24:00,
2013-08-23 16:29:00,75.4,33.6,23.96,South,184,8.0,12.0,25,-99.99,,,-99.99,meteohub,2013-08-23 22:29:00,
2013-08-23 16:34:00,75.2,33.6,23.96,South,185,11.0,13.0,25,-99.99,,,-99.99,meteohub,2013-08-23 22:34:00,
2013-08-23 16:39:00,75.0,33.6,23.96,SSW,192,8.0,13.0,25,-99.99,,,-99.99,meteohub,2013-08-23 22:39:00,
2013-08-23 16:44:00,74.8,33.6,23.96,SSW,193,6.0,13.0,25,-99.99,,,-99.99,meteohub,2013-08-23 22:44:00,
2013-08-23 16:49:00,74.7,33.6,23.96,SSW,209,6.0,13.0,25,-99.99,,,-99.99,meteohub,2013-08-23 22:49:00,
2013-08-23 16:55:00,74.7,33.6,23.96,South,189,6.0,13.0,25,-99.99,,,-99.99,meteohub,2013-08-23 22:55:00,
2013-08-23 17:00:00,74.5,33.8,23.96,South,189,10.0,13.0,25,-99.99,,,-99.99,meteohub,2013-08-23 23:00:00,
2013-08-23 17:05:00,74.5,33.8,23.96,South,191,6.0,11.0,25,-99.99,,,-99.99,meteohub,2013-08-23 23:05:00,
2013-08-23 17:10:00,74.5,33.8,23.96,South,184,5.0,11.0,25,-99.99,,,-99.99,meteohub,2013-08-23 23:10:00,
2013-08-23 17:15:00,74.5,33.8,23.96,SSW,199,5.0,10.0,25,-99.99,,,-99.99,meteohub,2013-08-23 23:15:00,
2013-08-23 17:20:00,74.5,33.8,23.96,SSW,210,7.0,10.0,25,-99.99,,,-99.99,meteohub,2013-08-23 23:20:00,
2013-08-23 17:26:00,74.5,33.8,23.96,SE,136,6.0,11.0,25,-99.99,,,-99.99,meteohub,2013-08-23 23:26:00,
2013-08-23 17:31:00,74.3,33.8,23.96,SSW,192,6.0,11.0,25,-99.99,,,-99.99,meteohub,2013-08-23 23:31:00,
2013-08-23 17:36:00,74.3,33.8,23.96,South,189,8.0,13.0,25,-99.99,,,-99.99,meteohub,2013-08-23 23:36:00,
2013-08-23 17:41:00,74.3,33.8,23.96,South,172,6.0,13.0,25,-99.99,,,-99.99,meteohub,2013-08-23 23:41:00,
2013-08-23 17:46:00,74.1,33.8,23.96,South,186,6.0,10.0,25,-99.99,,,-99.99,meteohub,2013-08-23 23:46:00,
2013-08-23 17:52:00,73.9,33.8,23.96,SSE,159,8.0,10.0,25,-99.99,,,-99.99,meteohub,2013-08-23 23:52:00,
2013-08-23 17:57:00,73.8,33.8,23.96,South,185,6.0,10.0,25,-99.99,,,-99.99,meteohub,2013-08-23 23:57:00,
2013-08-23 18:02:00,73.4,33.8,23.96,SSE,165,4.0,10.0,25,-99.99,,,-99.99,meteohub,2013-08-24 00:02:00,
2013-08-23 18:07:00,73.0,32.9,23.96,SSE,161,8.0,13.0,24,-99.99,,,-99.99,meteohub,2013-08-24 00:07:00,
2013-08-23 18:12:00,72.9,32.9,23.96,South,186,6.0,13.0,24,-99.99,,,-99.99,meteohub,2013-08-24 00:12:00,
2013-08-23 18:17:00,72.7,32.9,23.96,SSE,166,5.0,9.0,24,-99.99,,,-99.99,meteohub,2013-08-24 00:17:00,
2013-08-23 18:22:00,72.5,32.9,23.96,SE,140,5.0,9.0,24,-99.99,,,-99.99,meteohub,2013-08-24 00:22:00,
2013-08-23 18:27:00,72.1,32.9,23.96,South,182,5.0,9.0,24,-99.99,,,-99.99,meteohub,2013-08-24 00:27:00,
2013-08-23 18:32:00,71.8,32.9,23.96,SSE,165,5.0,9.0,24,-99.99,,,-99.99,meteohub,2013-08-24 00:32:00,
2013-08-23 18:37:00,71.6,32.9,23.96,South,170,11.0,11.0,24,-99.99,,,-99.99,meteohub,2013-08-24 00:37:00,
2013-08-23 18:42:00,71.2,34.0,23.96,South,174,8.0,9.0,25,-99.99,,,-99.99,meteohub,2013-08-24 00:42:00,
2013-08-23 18:47:00,70.7,34.0,23.96,SSE,165,11.0,11.0,25,-99.99,,,-99.99,meteohub,2013-08-24 00:47:00,
2013-08-23 18:52:00,70.5,33.8,23.96,South,174,6.0,11.0,25,-99.99,,,-99.99,meteohub,2013-08-24 00:52:00,
2013-08-23 18:57:00,70.0,33.8,23.96,SE,129,5.0,11.0,25,-99.99,,,-99.99,meteohub,2013-08-24 00:57:00,
2013-08-23 19:02:00,69.3,34.0,23.96,SE,146,5.0,11.0,25,-99.99,,,-99.99,meteohub,2013-08-24 01:02:00,
2013-08-23 19:07:00,68.7,34.0,23.96,SSE,150,5.0,15.0,25,-99.99,,,-99.99,meteohub,2013-08-24 01:07:00,
2013-08-23 19:12:00,68.4,34.0,23.99,SE,145,6.0,15.0,25,-99.99,,,-99.99,meteohub,2013-08-24 01:12:00,
2013-08-23 19:17:00,68.0,34.0,23.99,SE,144,4.0,13.0,25,-99.99,,,-99.99,meteohub,2013-08-24 01:17:00,
2013-08-23 19:22:00,67.6,34.0,23.99,ESE,122,4.0,13.0,25,-99.99,,,-99.99,meteohub,2013-08-24 01:22:00,
2013-08-23 19:27:00,67.3,34.0,23.99,SE,144,5.0,8.0,25,-99.99,,,-99.99,meteohub,2013-08-24 01:27:00,
2013-08-23 19:32:00,66.9,34.0,23.99,SE,141,6.0,8.0,25,-99.99,,,-99.99,meteohub,2013-08-24 01:32:00,
2013-08-23 19:37:00,66.7,33.8,23.99,SE,143,6.0,9.0,25,-99.99,,,-99.99,meteohub,2013-08-24 01:37:00,
2013-08-23 19:42:00,66.6,33.8,23.99,SE,138,4.0,9.0,25,-99.99,,,-99.99,meteohub,2013-08-24 01:42:00,
2013-08-23 19:47:00,66.4,33.8,23.99,SSE,148,4.0,9.0,25,-99.99,,,-99.99,meteohub,2013-08-24 01:47:00,
2013-08-23 19:52:00,66.4,33.8,23.99,SE,132,6.0,9.0,25,-99.99,,,-99.99,meteohub,2013-08-24 01:52:00,
2013-08-23 19:57:00,66.2,33.8,23.99,SE,145,5.0,8.0,25,-99.99,,,-99.99,meteohub,2013-08-24 01:57:00,
2013-08-23 20:03:00,66.2,33.8,23.99,SE,127,7.0,8.0,25,-99.99,,,-99.99,meteohub,2013-08-24 02:03:00,
2013-08-23 20:08:00,66.0,33.8,23.99,SE,146,5.0,9.0,25,-99.99,,,-99.99,meteohub,2013-08-24 02:08:00,
2013-08-23 20:13:00,65.8,33.8,23.99,SE,141,3.0,9.0,25,-99.99,,,-99.99,meteohub,2013-08-24 02:13:00,
2013-08-23 20:18:00,65.8,33.8,23.99,South,189,3.0,8.0,25,-99.99,,,-99.99,meteohub,2013-08-24 02:18:00,
2013-08-23 20:23:00,65.7,33.8,23.99,South,189,0.0,8.0,25,-99.99,,,-99.99,meteohub,2013-08-24 02:23:00,
2013-08-23 20:28:00,65.7,33.8,23.99,South,189,0.0,6.0,25,-99.99,,,-99.99,meteohub,2013-08-24 02:28:00,
2013-08-23 20:34:00,65.7,33.6,23.99,South,189,0.0,6.0,25,-99.99,,,-99.99,meteohub,2013-08-24 02:34:00,
2013-08-23 20:39:00,65.5,33.6,23.99,NW,322,0.0,0.0,25,-99.99,,,-99.99,meteohub,2013-08-24 02:39:00,
2013-08-23 20:44:00,65.5,33.6,23.99,NW,322,0.0,4.0,25,-99.99,,,-99.99,meteohub,2013-08-24 02:44:00,
2013-08-23 20:49:00,65.7,33.6,23.99,NW,321,0.0,4.0,25,-99.99,,,-99.99,meteohub,2013-08-24 02:49:00,
2013-08-23 20:54:00,65.7,33.6,23.99,NW,315,5.0,5.0,25,-99.99,,,-99.99,meteohub,2013-08-24 02:54:00,
2013-08-23 21:00:00,65.5,33.4,23.99,SW,214,0.0,5.0,25,-99.99,,,-99.99,meteohub,2013-08-24 03:00:00,
2013-08-23 21:05:00,65.5,33.4,23.99,SW,223,0.0,5.0,25,-99.99,,,-99.99,meteohub,2013-08-24 03:05:00,
2013-08-23 21:10:00,65.5,33.4,23.99,East,84,0.0,5.0,25,-99.99,,,-99.99,meteohub,2013-08-24 03:10:00,
2013-08-23 21:15:00,65.1,33.4,23.99,SE,129,3.0,6.0,25,-99.99,,,-99.99,meteohub,2013-08-24 03:15:00,
2013-08-23 21:20:00,64.9,33.4,23.99,ESE,123,2.0,6.0,25,-99.99,,,-99.99,meteohub,2013-08-24 03:20:00,
2013-08-23 21:26:00,64.9,33.4,23.99,SE,140,3.0,6.0,25,-99.99,,,-99.99,meteohub,2013-08-24 03:26:00,
2013-08-23 21:31:00,64.6,33.4,23.99,SSE,147,3.0,6.0,25,-99.99,,,-99.99,meteohub,2013-08-24 03:31:00,
2013-08-23 21:36:00,64.6,33.4,23.99,ENE,78,3.0,4.0,25,-99.99,,,-99.99,meteohub,2013-08-24 03:36:00,
2013-08-23 21:41:00,64.6,33.4,24.02,East,81,3.0,4.0,25,-99.99,,,-99.99,meteohub,2013-08-24 03:41:00,
2013-08-23 21:46:00,64.4,33.4,24.02,ENE,74,2.0,4.0,25,-99.99,,,-99.99,meteohub,2013-08-24 03:46:00,
2013-08-23 21:52:00,64.2,33.3,24.02,ENE,74,0.0,4.0,25,-99.99,,,-99.99,meteohub,2013-08-24 03:52:00,
2013-08-23 21:57:00,63.9,33.3,24.02,ENE,62,0.0,4.0,25,-99.99,,,-99.99,meteohub,2013-08-24 03:57:00,
2013-08-23 22:01:00,63.9,33.3,24.02,South,173,0.0,4.0,25,-99.99,,,-99.99,meteohub,2013-08-24 04:01:00,
2013-08-23 22:02:00,63.9,33.3,24.02,South,173,0.0,4.0,25,-99.99,,,-99.99,meteohub,2013-08-24 04:02:00,
2013-08-23 22:03:00,63.9,33.3,24.02,South,173,0.0,4.0,25,-99.99,,,-99.99,meteohub,2013-08-24 04:03:00,
2013-08-23 22:08:00,63.3,33.3,24.02,ENE,66,0.0,4.0,25,-99.99,,,-99.99,meteohub,2013-08-24 04:08:00,
2013-08-23 22:13:00,63.1,33.3,24.02,ENE,66,0.0,0.0,25,-99.99,,,-99.99,meteohub,2013-08-24 04:13:00,
2013-08-23 22:19:00,63.0,33.3,24.02,SE,143,5.0,0.0,25,-99.99,,,-99.99,meteohub,2013-08-24 04:19:00,
2013-08-23 22:24:00,62.8,33.3,24.02,SSE,149,5.0,6.0,25,-99.99,,,-99.99,meteohub,2013-08-24 04:24:00,
2013-08-23 22:29:00,62.6,33.3,24.02,SE,144,5.0,6.0,25,-99.99,,,-99.99,meteohub,2013-08-24 04:29:00,
2013-08-23 22:34:00,62.6,33.3,24.02,SE,127,3.0,6.0,25,-99.99,,,-99.99,meteohub,2013-08-24 04:34:00,
2013-08-23 22:40:00,62.6,33.1,23.99,SE,144,5.0,6.0,25,-99.99,,,-99.99,meteohub,2013-08-24 04:40:00,
2013-08-23 22:45:00,62.6,33.1,23.99,SSE,160,5.0,6.0,25,-99.99,,,-99.99,meteohub,2013-08-24 04:45:00,
2013-08-23 22:50:00,62.6,33.1,23.99,SSE,152,4.0,6.0,25,-99.99,,,-99.99,meteohub,2013-08-24 04:50:00,
2013-08-23 22:55:00,62.4,33.1,23.99,SE,140,4.0,7.0,25,-99.99,,,-99.99,meteohub,2013-08-24 04:55:00,
2013-08-23 23:00:00,62.4,33.1,23.99,SE,125,6.0,7.0,25,-99.99,,,-99.99,meteohub,2013-08-24 05:00:00,
2013-08-23 23:06:00,62.2,33.1,23.99,SE,131,3.0,6.0,25,-99.99,,,-99.99,meteohub,2013-08-24 05:06:00,
2013-08-23 23:11:00,62.2,33.1,23.99,SE,143,5.0,6.0,25,-99.99,,,-99.99,meteohub,2013-08-24 05:11:00,
2013-08-23 23:16:00,62.2,33.1,23.99,SSE,147,4.0,6.0,25,-99.99,,,-99.99,meteohub,2013-08-24 05:16:00,
2013-08-23 23:21:00,62.1,33.1,23.99,SSE,154,5.0,6.0,25,-99.99,,,-99.99,meteohub,2013-08-24 05:21:00,
2013-08-23 23:26:00,62.1,33.1,23.99,SE,131,4.0,10.0,25,-99.99,,,-99.99,meteohub,2013-08-24 05:26:00,
2013-08-23 23:32:00,61.9,33.1,23.99,SE,124,5.0,10.0,25,-99.99,,,-99.99,meteohub,2013-08-24 05:32:00,
2013-08-23 23:37:00,61.9,33.1,23.99,SE,133,6.0,10.0,25,-99.99,,,-99.99,meteohub,2013-08-24 05:37:00,
2013-08-23 23:42:00,61.7,33.1,23.99,SE,135,8.0,10.0,25,-99.99,,,-99.99,meteohub,2013-08-24 05:42:00,
2013-08-23 23:47:00,61.7,32.9,23.99,SE,144,5.0,9.0,25,-99.99,,,-99.99,meteohub,2013-08-24 05:47:00,
2013-08-23 23:52:00,61.5,32.9,23.99,SE,146,6.0,9.0,25,-99.99,,,-99.99,meteohub,2013-08-24 05:52:00,
2013-08-23 23:57:00,61.3,32.9,23.99,SE,141,6.0,9.0,25,-99.99,,,-99.99,meteohub,2013-08-24 05:57:00,